EDT,Max TemperatureF,Mean TemperatureF,Min TemperatureF,Max Dew PointF,MeanDew PointF,Min DewpointF,Max Humidity, Mean Humidity, Min Humidity, Max Sea Level PressureIn, Mean Sea Level PressureIn, Min Sea Level PressureIn, Max VisibilityMiles, Mean VisibilityMiles, Min VisibilityMiles, Max Wind SpeedMPH, Mean Wind SpeedMPH, Max Gust SpeedMPH,PrecipitationIn, CloudCover, Events, WindDirDegrees
2013-9-1,76,67,58,69,65,58,98,91,76,29.88,29.80,29.74,7,4,0,6,2,,0.00,6,Fog,84
2013-9-2,70,64,58,68,57,51,95,77,57,29.96,29.87,29.76,10,9,4,16,8,24,0.00,6,Rain,305
2013-9-3,76,64,53,54,51,49,90,65,40,30.04,30.00,29.95,10,10,10,13,7,21,0.00,2,,276
2013-9-4,83,68,54,63,58,53,97,74,45,30.14,30.05,30.01,10,10,5,14,7,22,0.00,2,,263
2013-9-5,69,57,45,55,46,39,97,69,34,30.30,30.24,30.14,10,10,10,9,4,,0.00,0,,3
2013-9-6,77,58,40,55,48,40,98,71,35,30.29,30.20,30.05,10,9,0,10,3,16,0.00,0,Fog,203
2013-9-7,77,69,61,71,63,55,92,80,71,30.05,29.96,29.90,10,10,4,10,5,16,0.00,5,Rain,218
2013-9-8,73,64,53,68,57,50,93,73,47,30.14,30.07,29.96,10,9,4,17,8,22,0.00,3,,47
2013-9-9,81,66,52,71,61,50,93,84,68,30.09,29.98,29.86,10,9,7,9,3,,0.00,4,Rain,158
2013-9-10,94,84,73,72,66,59,91,62,32,29.99,29.92,29.84,10,9,7,17,8,24,0.00,0,,217
2013-9-11,86,76,65,69,64,59,95,70,44,30.03,29.99,29.97,10,10,5,17,6,25,0.00,1,,236
2013-9-12,76,66,57,64,55,41,97,70,38,30.03,29.95,29.91,10,9,4,18,6,25,0.00,3,Rain,310
2013-9-13,61,50,39,46,41,32,96,70,34,30.16,30.11,30.03,10,10,10,14,7,20,0.00,3,,337
2013-9-14,69,51,33,49,40,33,99,71,28,30.20,30.14,30.08,10,9,0,13,2,17,0.00,0,Fog,234
2013-9-15,60,54,47,56,51,46,97,88,70,30.15,30.08,30.04,10,8,0,9,3,,0.00,5,Fog-Rain,206
2013-9-16,60,50,41,54,46,40,97,79,49,30.40,30.32,30.16,10,10,4,12,6,18,0.00,6,,21
2013-9-17,69,50,32,49,40,32,100,73,31,30.43,30.34,30.22,10,8,0,8,3,,0.00,1,Fog,134
2013-9-18,79,60,41,55,48,40,97,68,30,30.22,30.11,30.01,10,9,0,14,2,21,0.00,0,Fog,194
2013-9-19,79,70,60,68,62,54,97,82,66,30.03,29.96,29.86,10,9,2,16,5,20,0.00,5,Rain,184
2013-9-20,76,70,65,70,66,64,95,87,69,29.88,29.78,29.73,10,8,2,16,8,29,0.00,5,Rain,211
2013-9-21,66,60,53,61,50,39,94,72,47,29.91,29.78,29.70,10,10,5,16,8,23,0.00,6,Rain,294
2013-9-22,55,50,45,45,42,38,90,73,53,30.11,30.02,29.91,10,10,10,12,4,,0.00,8,,330
2013-9-23,62,50,37,46,41,37,98,73,44,30.20,30.16,30.11,10,10,2,8,2,,0.00,3,,104
2013-9-24,67,50,34,49,43,34,99,77,42,30.17,30.10,30.02,10,8,0,8,1,,0.00,1,Fog,79
2013-9-25,72,56,39,55,45,39,99,77,33,30.04,30.02,29.99,10,8,0,10,2,,0.00,1,Fog,62
2013-9-26,75,58,41,58,47,38,99,77,27,30.15,30.11,30.03,10,6,0,8,2,,0.00,4,Fog,64
2013-9-27,78,59,40,54,47,40,99,72,30,30.25,30.20,30.15,10,8,0,10,1,,0.00,2,Fog,108
2013-9-28,80,63,46,60,51,45,97,69,30,30.20,30.11,29.97,10,7,0,14,4,22,0.00,2,Fog,155
2013-9-29,69,58,46,60,51,44,95,70,40,30.02,29.98,29.91,10,10,4,12,6,24,0.00,4,Rain,300
2013-9-30,70,56,43,56,50,43,99,82,43,30.03,29.98,29.92,10,7,0,9,2,,0.00,4,Fog,209